| time (UTC) | temp F | wind direction | speed knots | gust knots | rain 1hr in | rain 24hr in | rain mn in | humidity % | barometer mb |
| 20260906232508 | 81 | 272 | 3.5 | 5.2 | 0.00 | 0.00 | 0.00 | 31 | 1016.5 |
| 20260906232008 | 81 | 293 | 5.2 | 7.8 | 0.00 | 0.00 | 0.00 | 31 | 1016.6 |
| 20260906231508 | 82 | 288 | 4.3 | 6.1 | 0.00 | 0.00 | 0.00 | 31 | 1016.6 |
| 20260906231008 | 82 | 283 | 3.5 | 5.2 | 0.00 | 0.00 | 0.00 | 30 | 1016.6 |
| 20260906230510 | 83 | 282 | 5.2 | 7.0 | 0.00 | 0.00 | 0.00 | 29 | 1016.5 |
| 20260906230009 | 83 | 283 | 4.3 | 6.1 | 0.00 | 0.00 | 0.00 | 30 | 1016.5 |
| 20260906225509 | 84 | 293 | 7.0 | 8.7 | 0.00 | 0.00 | 0.00 | 28 | 1016.5 |
| 20260906225008 | 83 | 278 | 6.1 | 7.8 | 0.00 | 0.00 | 0.00 | 30 | 1016.5 |
| 20260906224508 | 83 | 281 | 6.1 | 10.4 | 0.00 | 0.00 | 0.00 | 30 | 1016.6 |
| 20260906224008 | 83 | 275 | 5.2 | 8.7 | 0.00 | 0.00 | 0.00 | 30 | 1016.6 |
| 20260906223508 | 85 | 265 | 7.8 | 10.4 | 0.00 | 0.00 | 0.00 | 28 | 1016.6 |
| 20260906223008 | 85 | 293 | 5.2 | 7.8 | 0.00 | 0.00 | 0.00 | 29 | 1016.5 |
| 20260906222508 | 85 | 297 | 5.2 | 7.0 | 0.00 | 0.00 | 0.00 | 28 | 1016.6 |
| 20260906222008 | 84 | 303 | 5.2 | 7.0 | 0.00 | 0.00 | 0.00 | 29 | 1016.6 |
| 20260906221509 | 83 | 279 | 6.1 | 7.8 | 0.00 | 0.00 | 0.00 | 30 | 1016.6 |
| 20260906221008 | 83 | 312 | 7.0 | 9.6 | 0.00 | 0.00 | 0.00 | 29 | 1016.6 |
| 20260906220508 | 82 | 311 | 7.0 | 7.8 | 0.00 | 0.00 | 0.00 | 30 | 1016.7 |
| 20260906220008 | 82 | 306 | 5.2 | 6.1 | 0.00 | 0.00 | 0.00 | 31 | 1016.7 |
| 20260906215508 | 82 | 302 | 7.0 | 7.8 | 0.00 | 0.00 | 0.00 | 30 | 1016.7 |
| 20260906215008 | 82 | 303 | 4.3 | 6.1 | 0.00 | 0.00 | 0.00 | 32 | 1016.6 |
| 20260906214508 | 83 | 306 | 7.0 | 8.7 | 0.00 | 0.00 | 0.00 | 29 | 1016.5 |
| 20260906214008 | 83 | 295 | 5.2 | 7.8 | 0.00 | 0.00 | 0.00 | 30 | 1016.5 |
| 20260906213508 | 84 | 293 | 3.5 | 4.3 | 0.00 | 0.00 | 0.00 | 31 | 1016.5 |
| 20260906213009 | 84 | 323 | 2.6 | 4.3 | 0.00 | 0.00 | 0.00 | 28 | 1016.6 |
| 20260906212508 | 84 | 302 | 2.6 | 2.6 | 0.00 | 0.00 | 0.00 | 31 | 1016.6 |
| 20260906212008 | 84 | 307 | 4.3 | 5.2 | 0.00 | 0.00 | 0.00 | 29 | 1016.6 |
| 20260906211508 | 84 | 315 | 2.6 | 3.5 | 0.00 | 0.00 | 0.00 | 32 | 1016.7 |
| 20260906211008 | 84 | 298 | 4.3 | 5.2 | 0.00 | 0.00 | 0.00 | 28 | 1016.9 |
| 20260906210509 | 85 | 302 | 4.3 | 7.0 | 0.00 | 0.00 | 0.00 | 28 | 1016.9 |
| 20260906210017 | 85 | 323 | 2.6 | 3.5 | 0.00 | 0.00 | 0.00 | 26 | 1016.9 |
| 20260906205508 | 85 | 8 | 3.5 | 4.3 | 0.00 | 0.00 | 0.00 | 24 | 1016.9 |
| 20260906205009 | 85 | 327 | 3.5 | 4.3 | 0.00 | 0.00 | 0.00 | 25 | 1016.9 |
| 20260906204508 | 85 | 319 | 3.5 | 4.3 | 0.00 | 0.00 | 0.00 | 27 | 1016.9 |
| 20260906204008 | 85 | 354 | 1.7 | 3.5 | 0.00 | 0.00 | 0.00 | 27 | 1016.9 |
| 20260906203508 | 85 | 359 | 0.9 | 1.7 | 0.00 | 0.00 | 0.00 | 29 | 1017.1 |
| 20260906203008 | 85 | 358 | 0.9 | 1.7 | 0.00 | 0.00 | 0.00 | 27 | 1017.2 |
| 20260906202508 | 85 | 21 | 0.9 | 1.7 | 0.00 | 0.00 | 0.00 | 30 | 1017.3 |
| 20260906202008 | 85 | 77 | 1.7 | 2.6 | 0.00 | 0.00 | 0.00 | 29 | 1017.4 |
| 20260906201508 | 86 | 65 | 0.9 | 3.5 | 0.00 | 0.00 | 0.00 | 28 | 1017.5 |
| 20260906201008 | 86 | 341 | 1.7 | 2.6 | 0.00 | 0.00 | 0.00 | 25 | 1017.5 |
| 20260906200509 | 85 | 26 | 0.0 | 1.7 | 0.00 | 0.00 | 0.00 | 26 | 1017.6 |
| 20260906200008 | 85 | 358 | 1.7 | 1.7 | 0.00 | 0.00 | 0.00 | 25 | 1017.6 |
| 20260906195508 | 85 | 2 | 1.7 | 2.6 | 0.00 | 0.00 | 0.00 | 26 | 1017.6 |
| 20260906195008 | 85 | 319 | 2.6 | 2.6 | 0.00 | 0.00 | 0.00 | 25 | 1017.8 |
| 20260906194508 | 85 | 311 | 1.7 | 3.5 | 0.00 | 0.00 | 0.00 | 29 | 1017.8 |
| 20260906194008 | 85 | 285 | 2.6 | 2.6 | 0.00 | 0.00 | 0.00 | 27 | 1017.9 |
| 20260906193509 | 85 | 315 | 1.7 | 2.6 | 0.00 | 0.00 | 0.00 | 27 | 1017.9 |
| 20260906193009 | 85 | 340 | 1.7 | 2.6 | 0.00 | 0.00 | 0.00 | 24 | 1017.9 |
| 20260906192508 | 85 | 271 | 1.7 | 1.7 | 0.00 | 0.00 | 0.00 | 25 | 1017.9 |
| 20260906192008 | 85 | 296 | 3.5 | 5.2 | 0.00 | 0.00 | 0.00 | 25 | 1018.0 |
| 20260906191509 | 85 | 268 | 2.6 | 4.3 | 0.00 | 0.00 | 0.00 | 28 | 1018.1 |
| 20260906191008 | 85 | 284 | 1.7 | 4.3 | 0.00 | 0.00 | 0.00 | 29 | 1018.2 |
| 20260906190508 | 85 | 305 | 3.5 | 6.1 | 0.00 | 0.00 | 0.00 | 28 | 1018.3 |
| 20260906190008 | 85 | 336 | 2.6 | 4.3 | 0.00 | 0.00 | 0.00 | 24 | 1018.3 |
| 20260906185508 | 85 | 276 | 3.5 | 4.3 | 0.00 | 0.00 | 0.00 | 31 | 1018.4 |
| 20260906185008 | 85 | 169 | 2.6 | 4.3 | 0.00 | 0.00 | 0.00 | 25 | 1018.4 |
| 20260906184508 | 85 | 290 | 2.6 | 4.3 | 0.00 | 0.00 | 0.00 | 26 | 1018.6 |
| 20260906184008 | 85 | 195 | 1.7 | 2.6 | 0.00 | 0.00 | 0.00 | 25 | 1018.6 |
| 20260906183508 | 84 | 222 | 2.6 | 3.5 | 0.00 | 0.00 | 0.00 | 29 | 1018.7 |
| 20260906183008 | 83 | 298 | 1.7 | 2.6 | 0.00 | 0.00 | 0.00 | 29 | 1018.7 |
| 20260906182508 | 82 | 313 | 0.9 | 2.6 | 0.00 | 0.00 | 0.00 | 31 | 1018.8 |
| 20260906182008 | 82 | 308 | 3.5 | 5.2 | 0.00 | 0.00 | 0.00 | 33 | 1019.0 |
| 20260906181509 | 83 | 256 | 4.3 | 5.2 | 0.00 | 0.00 | 0.00 | 32 | 1019.1 |
| 20260906181008 | 83 | 266 | 1.7 | 2.6 | 0.00 | 0.00 | 0.00 | 33 | 1019.2 |
| 20260906180508 | 82 | 238 | 1.7 | 2.6 | 0.00 | 0.00 | 0.00 | 30 | 1019.2 |
| 20260906180009 | 81 | 329 | 1.7 | 2.6 | 0.00 | 0.00 | 0.00 | 28 | 1019.4 |
| 20260906175508 | 80 | 227 | 2.6 | 3.5 | 0.00 | 0.00 | 0.00 | 31 | 1019.5 |
| 20260906175008 | 80 | 266 | 2.6 | 4.3 | 0.00 | 0.00 | 0.00 | 32 | 1019.5 |
| 20260906174508 | 80 | 135 | 3.5 | 4.3 | 0.00 | 0.00 | 0.00 | 31 | 1019.6 |
| 20260906174008 | 79 | 144 | 1.7 | 2.6 | 0.00 | 0.00 | 0.00 | 33 | 1019.7 |
| 20260906173508 | 79 | 134 | 2.6 | 3.5 | 0.00 | 0.00 | 0.00 | 30 | 1019.7 |
| 20260906173008 | 79 | 264 | 0.0 | 0.9 | 0.00 | 0.00 | 0.00 | 31 | 1019.8 |
| 20260906172508 | 79 | 162 | 2.6 | 4.3 | 0.00 | 0.00 | 0.00 | 32 | 1019.9 |
| 20260906172008 | 79 | 110 | 1.7 | 2.6 | 0.00 | 0.00 | 0.00 | 32 | 1019.9 |
| 20260906171508 | 79 | 142 | 2.6 | 3.5 | 0.00 | 0.00 | 0.00 | 33 | 1019.9 |
| 20260906171008 | 79 | 253 | 1.7 | 3.5 | 0.00 | 0.00 | 0.00 | 36 | 1019.9 |
| 20260906170508 | 78 | 183 | 1.7 | 4.3 | 0.00 | 0.00 | 0.00 | 36 | 1020.0 |
| 20260906170009 | 78 | 145 | 2.6 | 3.5 | 0.00 | 0.00 | 0.00 | 35 | 1020.0 |
| 20260906165508 | 78 | 210 | 1.7 | 2.6 | 0.00 | 0.00 | 0.00 | 36 | 1020.0 |
| 20260906165008 | 77 | 132 | 4.3 | 6.1 | 0.00 | 0.00 | 0.00 | 32 | 1020.0 |
| 20260906164510 | 77 | 148 | 1.7 | 3.5 | 0.00 | 0.00 | 0.00 | 34 | 1020.0 |
| 20260906164008 | 76 | 120 | 3.5 | 4.3 | 0.00 | 0.00 | 0.00 | 34 | 1020.0 |
| 20260906163509 | 76 | 101 | 1.7 | 2.6 | 0.00 | 0.00 | 0.00 | 39 | 1020.2 |
| 20260906163008 | 77 | 198 | 2.6 | 4.3 | 0.00 | 0.00 | 0.00 | 37 | 1020.2 |
| 20260906162508 | 76 | 64 | 1.7 | 3.5 | 0.00 | 0.00 | 0.00 | 37 | 1020.2 |
| 20260906162010 | 76 | 210 | 1.7 | 3.5 | 0.00 | 0.00 | 0.00 | 37 | 1020.3 |
| 20260906161508 | 76 | 93 | 3.5 | 6.1 | 0.00 | 0.00 | 0.00 | 38 | 1020.2 |
| 20260906161008 | 75 | 139 | 2.6 | 3.5 | 0.00 | 0.00 | 0.00 | 38 | 1020.2 |
| 20260906160508 | 75 | 149 | 0.9 | 1.7 | 0.00 | 0.00 | 0.00 | 39 | 1020.2 |
| 20260906160008 | 74 | 112 | 0.9 | 1.7 | 0.00 | 0.00 | 0.00 | 41 | 1020.3 |
| 20260906155508 | 74 | 154 | 1.7 | 1.7 | 0.00 | 0.00 | 0.00 | 39 | 1020.3 |
| 20260906155008 | 74 | 153 | 2.6 | 3.5 | 0.00 | 0.00 | 0.00 | 41 | 1020.3 |
| 20260906154508 | 74 | 214 | 1.7 | 3.5 | 0.00 | 0.00 | 0.00 | 39 | 1020.3 |
| 20260906154008 | 74 | 198 | 1.7 | 2.6 | 0.00 | 0.00 | 0.00 | 40 | 1020.3 |
| 20260906153508 | 72 | 108 | 0.0 | 0.9 | 0.00 | 0.00 | 0.00 | 42 | 1020.3 |
| 20260906153008 | 71 | 153 | 0.9 | 2.6 | 0.00 | 0.00 | 0.00 | 43 | 1020.4 |
| 20260906152508 | 72 | 183 | 1.7 | 3.5 | 0.00 | 0.00 | 0.00 | 43 | 1020.5 |
| 20260906152008 | 72 | 133 | 2.6 | 3.5 | 0.00 | 0.00 | 0.00 | 40 | 1020.5 |
| 20260906151508 | 73 | 196 | 2.6 | 4.3 | 0.00 | 0.00 | 0.00 | 38 | 1020.4 |
| 20260906151008 | 72 | 256 | 0.9 | 1.7 | 0.00 | 0.00 | 0.00 | 43 | 1020.4 |
| 20260906150509 | 71 | 109 | 1.7 | 1.7 | 0.00 | 0.00 | 0.00 | 41 | 1020.5 |
| 20260906150009 | 70 | 159 | 0.9 | 1.7 | 0.00 | 0.00 | 0.00 | 39 | 1020.5 |
| 20260906145508 | 70 | 149 | 1.7 | 1.7 | 0.00 | 0.00 | 0.00 | 43 | 1020.5 |
| 20260906145008 | 70 | 176 | 1.7 | 3.5 | 0.00 | 0.00 | 0.00 | 42 | 1020.5 |
| 20260906144508 | 70 | 139 | 0.9 | 1.7 | 0.00 | 0.00 | 0.00 | 47 | 1020.5 |
| 20260906144008 | 69 | 114 | 1.7 | 3.5 | 0.00 | 0.00 | 0.00 | 44 | 1020.5 |
| 20260906143508 | 68 | 86 | 1.7 | 2.6 | 0.00 | 0.00 | 0.00 | 45 | 1020.5 |
| 20260906143009 | 67 | 115 | 0.0 | 1.7 | 0.00 | 0.00 | 0.00 | 52 | 1020.5 |
| 20260906142509 | 65 | 76 | 0.9 | 1.7 | 0.00 | 0.00 | 0.00 | 57 | 1020.5 |
| 20260906142008 | 63 | 94 | 1.7 | 1.7 | 0.00 | 0.00 | 0.00 | 62 | 1020.5 |
| 20260906141508 | 62 | 322 | 0.9 | 1.7 | 0.00 | 0.00 | 0.00 | 63 | 1020.5 |
| 20260906141008 | 60 | 330 | 0.9 | 0.9 | 0.00 | 0.00 | 0.00 | 64 | 1020.5 |
| 20260906140508 | 59 | 354 | 0.9 | 1.7 | 0.00 | 0.00 | 0.00 | 66 | 1020.5 |
| 20260906140009 | 58 | 323 | 0.0 | 0.9 | 0.00 | 0.00 | 0.00 | 68 | 1020.5 |
| 20260906135509 | 56 | 359 | 0.9 | 1.7 | 0.00 | 0.00 | 0.00 | 68 | 1020.5 |
| 20260906135009 | 55 | 60 | 1.7 | 2.6 | 0.00 | 0.00 | 0.00 | 70 | 1020.4 |
| 20260906134508 | 54 | 50 | 1.7 | 1.7 | 0.00 | 0.00 | 0.00 | 72 | 1020.4 |
| 20260906134008 | 54 | 360 | 0.9 | 0.9 | 0.00 | 0.00 | 0.00 | 73 | 1020.4 |
| 20260906133531 | 54 | 355 | 0.9 | 1.7 | 0.00 | 0.00 | 0.00 | 73 | 1020.4 |
| 20260906133008 | 54 | 16 | 1.7 | 2.6 | 0.00 | 0.00 | 0.00 | 72 | 1020.3 |
| 20260906132508 | 54 | 341 | 0.9 | 0.9 | 0.00 | 0.00 | 0.00 | 72 | 1020.2 |
| 20260906132009 | 54 | 153 | 0.0 | 0.9 | 0.00 | 0.00 | 0.00 | 72 | 1020.0 |
| 20260906131508 | 54 | 109 | 0.9 | 1.7 | 0.00 | 0.00 | 0.00 | 71 | 1020.0 |
| 20260906131008 | 54 | 36 | 1.7 | 2.6 | 0.00 | 0.00 | 0.00 | 71 | 1020.0 |
| 20260906130508 | 53 | 21 | 0.9 | 1.7 | 0.00 | 0.00 | 0.00 | 72 | 1019.9 |
| 20260906130009 | 53 | 37 | 0.9 | 1.7 | 0.00 | 0.00 | 0.00 | 73 | 1019.9 |
| 20260906125508 | 53 | 135 | 1.7 | 2.6 | 0.00 | 0.00 | 0.00 | 73 | 1019.9 |
| 20260906125009 | 53 | 69 | 1.7 | 1.7 | 0.00 | 0.00 | 0.00 | 74 | 1019.9 |
| 20260906124508 | 53 | 27 | 0.9 | 1.7 | 0.00 | 0.00 | 0.00 | 74 | 1020.0 |
| 20260906124008 | 53 | 118 | 0.0 | 0.9 | 0.00 | 0.00 | 0.00 | 73 | 1020.0 |
| 20260906123508 | 53 | 274 | 1.7 | 1.7 | 0.00 | 0.00 | 0.00 | 73 | 1020.0 |
| 20260906123009 | 53 | 346 | 0.9 | 0.9 | 0.00 | 0.00 | 0.00 | 72 | 1019.7 |
| 20260906122509 | 53 | 55 | 0.9 | 1.7 | 0.00 | 0.00 | 0.00 | 71 | 1019.7 |
| 20260906122009 | 53 | 353 | 0.9 | 1.7 | 0.00 | 0.00 | 0.00 | 72 | 1019.8 |
| 20260906121508 | 53 | 140 | 0.0 | 0.9 | 0.00 | 0.00 | 0.00 | 73 | 1019.7 |
| 20260906121008 | 53 | 99 | 1.7 | 2.6 | 0.00 | 0.00 | 0.00 | 74 | 1019.7 |
| 20260906120509 | 53 | 10 | 0.9 | 0.9 | 0.00 | 0.00 | 0.00 | 76 | 1019.7 |
| 20260906120008 | 52 | 76 | 1.7 | 1.7 | 0.00 | 0.00 | 0.00 | 77 | 1019.7 |
| 20260906115509 | 52 | 336 | 0.0 | 0.9 | 0.00 | 0.00 | 0.00 | 76 | 1019.7 |
| 20260906115008 | 52 | 360 | 0.0 | 0.0 | 0.00 | 0.00 | 0.00 | 76 | 1019.7 |
| 20260906114508 | 52 | 51 | 0.9 | 1.7 | 0.00 | 0.00 | 0.00 | 76 | 1019.7 |
| 20260906114008 | 52 | 41 | 0.9 | 0.9 | 0.00 | 0.00 | 0.00 | 76 | 1019.6 |
| 20260906113508 | 52 | 360 | 0.0 | 0.0 | 0.00 | 0.00 | 0.00 | 76 | 1019.6 |
| 20260906113008 | 52 | 342 | 0.0 | 0.9 | 0.00 | 0.00 | 0.00 | 76 | 1019.6 |
| 20260906112509 | 53 | 360 | 0.0 | 0.0 | 0.00 | 0.00 | 0.00 | 75 | 1019.6 |
| 20260906112008 | 53 | 230 | 0.0 | 0.0 | 0.00 | 0.00 | 0.00 | 75 | 1019.6 |
| 20260906111508 | 53 | 225 | 0.9 | 0.9 | 0.00 | 0.00 | 0.00 | 75 | 1019.6 |
| 20260906111008 | 53 | 77 | 0.0 | 0.9 | 0.00 | 0.00 | 0.00 | 75 | 1019.5 |
| 20260906110509 | 53 | 72 | 1.7 | 1.7 | 0.00 | 0.00 | 0.00 | 75 | 1019.5 |
| 20260906110008 | 53 | 40 | 0.9 | 0.9 | 0.00 | 0.00 | 0.00 | 75 | 1019.4 |
| 20260906105509 | 53 | 203 | 0.0 | 0.9 | 0.00 | 0.00 | 0.00 | 75 | 1019.4 |
| 20260906105009 | 53 | 111 | 0.0 | 0.9 | 0.00 | 0.00 | 0.00 | 75 | 1019.5 |
| 20260906104508 | 53 | 251 | 0.9 | 1.7 | 0.00 | 0.00 | 0.00 | 75 | 1019.5 |
| 20260906104009 | 53 | 311 | 0.9 | 0.9 | 0.00 | 0.00 | 0.00 | 75 | 1019.4 |
| 20260906103508 | 53 | 20 | 0.9 | 0.9 | 0.00 | 0.00 | 0.00 | 75 | 1019.4 |
| 20260906103008 | 53 | 86 | 0.0 | 0.9 | 0.00 | 0.00 | 0.00 | 75 | 1019.2 |
| 20260906102508 | 53 | 102 | 0.0 | 0.0 | 0.00 | 0.00 | 0.00 | 75 | 1019.2 |
| 20260906102008 | 53 | 360 | 0.0 | 0.0 | 0.00 | 0.00 | 0.00 | 75 | 1019.2 |
| 20260906101508 | 53 | 67 | 0.9 | 1.7 | 0.00 | 0.00 | 0.00 | 75 | 1019.2 |
| 20260906101008 | 52 | 73 | 0.9 | 1.7 | 0.00 | 0.00 | 0.00 | 74 | 1019.1 |
| 20260906100508 | 53 | 288 | 0.0 | 0.9 | 0.00 | 0.00 | 0.00 | 74 | 1019.2 |
| 20260906100021 | 53 | 360 | 0.0 | 0.0 | 0.00 | 0.00 | 0.00 | 73 | 1019.2 |
| 20260906095509 | 53 | 216 | 0.0 | 0.0 | 0.00 | 0.00 | 0.00 | 74 | 1019.2 |
| 20260906095008 | 53 | 158 | 0.0 | 0.9 | 0.00 | 0.00 | 0.00 | 73 | 1019.1 |
| 20260906094509 | 53 | 285 | 0.0 | 0.0 | 0.00 | 0.00 | 0.00 | 73 | 1019.0 |
| 20260906094009 | 53 | 334 | 0.0 | 0.0 | 0.00 | 0.00 | 0.00 | 72 | 1019.1 |
| 20260906093508 | 54 | 360 | 0.0 | 0.0 | 0.00 | 0.00 | 0.00 | 71 | 1019.1 |
| 20260906093008 | 54 | 34 | 0.0 | 0.0 | 0.00 | 0.00 | 0.00 | 71 | 1019.0 |
| 20260906092509 | 54 | 315 | 0.9 | 0.9 | 0.00 | 0.00 | 0.00 | 70 | 1019.0 |
| 20260906092009 | 54 | 60 | 0.9 | 0.9 | 0.00 | 0.00 | 0.00 | 69 | 1019.0 |
| 20260906091509 | 54 | 322 | 0.0 | 0.0 | 0.00 | 0.00 | 0.00 | 68 | 1019.1 |
| 20260906091008 | 54 | 253 | 0.0 | 0.0 | 0.00 | 0.00 | 0.00 | 68 | 1019.1 |
| 20260906090508 | 54 | 249 | 0.9 | 0.9 | 0.00 | 0.00 | 0.00 | 68 | 1019.1 |
| 20260906090008 | 55 | 114 | 0.0 | 0.9 | 0.00 | 0.00 | 0.00 | 68 | 1019.1 |
| 20260906085508 | 55 | 83 | 0.0 | 0.9 | 0.00 | 0.00 | 0.00 | 67 | 1019.1 |
| 20260906085009 | 55 | 77 | 0.0 | 0.9 | 0.00 | 0.00 | 0.00 | 67 | 1019.0 |
| 20260906084508 | 55 | 70 | 0.9 | 1.7 | 0.00 | 0.00 | 0.00 | 66 | 1019.1 |
| 20260906084008 | 55 | 119 | 1.7 | 1.7 | 0.00 | 0.00 | 0.00 | 66 | 1019.1 |
| 20260906083509 | 55 | 6 | 1.7 | 1.7 | 0.00 | 0.00 | 0.00 | 65 | 1019.1 |
| 20260906083008 | 55 | 97 | 1.7 | 1.7 | 0.00 | 0.00 | 0.00 | 66 | 1019.1 |
| 20260906082508 | 55 | 68 | 0.9 | 1.7 | 0.00 | 0.00 | 0.00 | 67 | 1019.1 |
| 20260906082008 | 55 | 57 | 0.9 | 1.7 | 0.00 | 0.00 | 0.00 | 67 | 1019.1 |
| 20260906081508 | 55 | 54 | 0.9 | 1.7 | 0.00 | 0.00 | 0.00 | 66 | 1019.2 |
| 20260906081008 | 55 | 333 | 0.9 | 0.9 | 0.00 | 0.00 | 0.00 | 65 | 1019.2 |
| 20260906080508 | 55 | 106 | 0.9 | 1.7 | 0.00 | 0.00 | 0.00 | 65 | 1019.2 |
| 20260906080008 | 55 | 349 | 0.0 | 0.9 | 0.00 | 0.00 | 0.00 | 64 | 1019.1 |
| 20260906075509 | 56 | 68 | 1.7 | 1.7 | 0.00 | 0.00 | 0.00 | 64 | 1019.1 |
| 20260906075008 | 56 | 16 | 0.9 | 1.7 | 0.00 | 0.00 | 0.00 | 64 | 1019.0 |
| 20260906074508 | 56 | 68 | 0.9 | 1.7 | 0.00 | 0.00 | 0.00 | 63 | 1019.0 |
| 20260906074009 | 56 | 339 | 0.9 | 1.7 | 0.00 | 0.00 | 0.00 | 64 | 1019.0 |
| 20260906073508 | 56 | 133 | 0.9 | 0.9 | 0.00 | 0.00 | 0.00 | 64 | 1019.0 |
| 20260906073008 | 56 | 92 | 1.7 | 1.7 | 0.00 | 0.00 | 0.00 | 64 | 1019.1 |
| 20260906072509 | 56 | 307 | 0.0 | 0.0 | 0.00 | 0.00 | 0.00 | 64 | 1019.1 |
| 20260906072008 | 56 | 127 | 1.7 | 1.7 | 0.00 | 0.00 | 0.00 | 65 | 1019.0 |
| 20260906071508 | 56 | 141 | 0.9 | 0.9 | 0.00 | 0.00 | 0.00 | 64 | 1019.1 |
| 20260906071017 | 56 | 290 | 0.9 | 1.7 | 0.00 | 0.00 | 0.00 | 63 | 1019.1 |
| 20260906070508 | 56 | 109 | 0.0 | 0.9 | 0.00 | 0.00 | 0.00 | 63 | 1019.1 |
| 20260906070008 | 56 | 360 | 0.0 | 0.0 | 0.00 | 0.00 | 0.00 | 62 | 1019.1 |
| 20260906065509 | 57 | 262 | 0.0 | 0.9 | 0.00 | 0.00 | 0.00 | 62 | 1019.1 |
| 20260906065008 | 57 | 263 | 0.9 | 0.9 | 0.00 | 0.00 | 0.00 | 62 | 1019.1 |
| 20260906064509 | 58 | 276 | 0.9 | 1.7 | 0.00 | 0.00 | 0.00 | 58 | 1019.0 |
| 20260906064008 | 58 | 327 | 0.0 | 0.9 | 0.00 | 0.00 | 0.00 | 57 | 1018.9 |
| 20260906063508 | 58 | 36 | 0.0 | 0.0 | 0.00 | 0.00 | 0.00 | 58 | 1019.0 |
| 20260906063008 | 58 | 92 | 0.0 | 0.9 | 0.00 | 0.00 | 0.00 | 58 | 1019.0 |
| 20260906062508 | 59 | 30 | 1.7 | 1.7 | 0.00 | 0.00 | 0.00 | 56 | 1018.9 |
| 20260906062008 | 59 | 27 | 0.9 | 1.7 | 0.00 | 0.00 | 0.00 | 55 | 1018.8 |
| 20260906061508 | 59 | 10 | 0.9 | 0.9 | 0.00 | 0.00 | 0.00 | 53 | 1018.8 |
| 20260906061008 | 60 | 75 | 0.9 | 1.7 | 0.00 | 0.00 | 0.00 | 56 | 1018.7 |
| 20260906060508 | 60 | 82 | 0.9 | 0.9 | 0.00 | 0.00 | 0.00 | 54 | 1018.7 |
| 20260906060008 | 60 | 33 | 1.7 | 2.6 | 0.00 | 0.00 | 0.00 | 52 | 1018.7 |
| 20260906055511 | 60 | 46 | 0.9 | 1.7 | 0.00 | 0.00 | 0.00 | 54 | 1018.7 |
| 20260906055008 | 60 | 48 | 0.9 | 1.7 | 0.00 | 0.00 | 0.00 | 55 | 1018.7 |
| 20260906054509 | 60 | 53 | 0.9 | 0.9 | 0.00 | 0.00 | 0.00 | 53 | 1018.7 |
| 20260906054008 | 61 | 354 | 0.9 | 1.7 | 0.00 | 0.00 | 0.00 | 53 | 1018.7 |
| 20260906053509 | 61 | 39 | 1.7 | 2.6 | 0.00 | 0.00 | 0.00 | 51 | 1018.7 |
| 20260906053009 | 61 | 53 | 0.9 | 0.9 | 0.00 | 0.00 | 0.00 | 51 | 1018.7 |
| 20260906052511 | 62 | 58 | 0.9 | 0.9 | 0.00 | 0.00 | 0.00 | 49 | 1018.7 |
| 20260906052008 | 62 | 78 | 0.9 | 0.9 | 0.00 | 0.00 | 0.00 | 49 | 1018.7 |
| 20260906051508 | 62 | 55 | 0.9 | 1.7 | 0.00 | 0.00 | 0.00 | 49 | 1018.6 |
| 20260906051009 | 62 | 67 | 0.9 | 1.7 | 0.00 | 0.00 | 0.00 | 48 | 1018.6 |
| 20260906050508 | 62 | 340 | 1.7 | 1.7 | 0.00 | 0.00 | 0.00 | 47 | 1018.6 |
| 20260906050009 | 62 | 59 | 0.9 | 1.7 | 0.00 | 0.00 | 0.00 | 50 | 1018.6 |
| 20260906045510 | 62 | 60 | 1.7 | 1.7 | 0.00 | 0.00 | 0.00 | 50 | 1018.6 |
| 20260906045009 | 62 | 15 | 0.9 | 0.9 | 0.00 | 0.00 | 0.00 | 48 | 1018.6 |
| 20260906044509 | 62 | 2 | 1.7 | 1.7 | 0.00 | 0.00 | 0.00 | 48 | 1018.4 |
| 20260906044008 | 62 | 61 | 1.7 | 1.7 | 0.00 | 0.00 | 0.00 | 51 | 1018.6 |
| 20260906043509 | 63 | 67 | 0.0 | 0.9 | 0.00 | 0.00 | 0.00 | 51 | 1018.4 |
| 20260906043008 | 63 | 69 | 1.7 | 1.7 | 0.00 | 0.00 | 0.00 | 50 | 1018.4 |
| 20260906042508 | 63 | 341 | 0.9 | 0.9 | 0.00 | 0.00 | 0.00 | 49 | 1018.4 |
| 20260906042016 | 64 | 57 | 1.7 | 1.7 | 0.00 | 0.00 | 0.00 | 49 | 1018.4 |
| 20260906041508 | 64 | 69 | 1.7 | 1.7 | 0.00 | 0.00 | 0.00 | 51 | 1018.4 |
| 20260906041008 | 64 | 119 | 0.0 | 0.0 | 0.00 | 0.00 | 0.00 | 52 | 1018.4 |
| 20260906040508 | 64 | 45 | 0.9 | 1.7 | 0.00 | 0.00 | 0.00 | 51 | 1018.3 |
| 20260906040008 | 64 | 19 | 0.9 | 0.9 | 0.00 | 0.00 | 0.00 | 51 | 1018.3 |
| 20260906035508 | 64 | 41 | 0.9 | 1.7 | 0.00 | 0.00 | 0.00 | 54 | 1018.2 |
| 20260906035008 | 65 | 360 | 0.0 | 0.0 | 0.00 | 0.00 | 0.00 | 54 | 1018.2 |
| 20260906034508 | 65 | 49 | 0.9 | 0.9 | 0.00 | 0.00 | 0.00 | 53 | 1018.2 |
| 20260906034008 | 65 | 349 | 0.0 | 0.9 | 0.00 | 0.00 | 0.00 | 51 | 1018.2 |
| 20260906033508 | 66 | 266 | 0.9 | 1.7 | 0.00 | 0.00 | 0.00 | 50 | 1018.1 |
| 20260906033008 | 67 | 41 | 0.0 | 0.9 | 0.00 | 0.00 | 0.00 | 49 | 1018.1 |
| 20260906032508 | 67 | 28 | 0.0 | 0.0 | 0.00 | 0.00 | 0.00 | 47 | 1018.1 |
| 20260906032009 | 68 | 167 | 0.9 | 1.7 | 0.00 | 0.00 | 0.00 | 50 | 1018.0 |
| 20260906031508 | 69 | 68 | 0.9 | 1.7 | 0.00 | 0.00 | 0.00 | 47 | 1017.9 |
| 20260906031008 | 69 | 62 | 0.9 | 1.7 | 0.00 | 0.00 | 0.00 | 47 | 1017.8 |
| 20260906030508 | 70 | 52 | 0.9 | 1.7 | 0.00 | 0.00 | 0.00 | 43 | 1017.6 |
| 20260906030008 | 70 | 42 | 0.0 | 0.9 | 0.00 | 0.00 | 0.00 | 39 | 1017.6 |
| 20260906025508 | 70 | 60 | 0.9 | 1.7 | 0.00 | 0.00 | 0.00 | 40 | 1017.5 |
| 20260906025009 | 70 | 73 | 1.7 | 2.6 | 0.00 | 0.00 | 0.00 | 41 | 1017.5 |
| 20260906024025 | 70 | 59 | 0.9 | 2.6 | 0.00 | 0.00 | 0.00 | 42 | 1017.4 |
| 20260906023508 | 70 | 25 | 0.0 | 0.9 | 0.00 | 0.00 | 0.00 | 41 | 1017.3 |
| 20260906023009 | 70 | 317 | 0.0 | 0.9 | 0.00 | 0.00 | 0.00 | 43 | 1017.2 |
| 20260906022508 | 71 | 248 | 0.0 | 0.0 | 0.00 | 0.00 | 0.00 | 44 | 1017.2 |
| 20260906022008 | 71 | 44 | 0.0 | 1.7 | 0.00 | 0.00 | 0.00 | 44 | 1017.2 |
| 20260906021508 | 72 | 360 | 0.0 | 0.0 | 0.00 | 0.00 | 0.00 | 44 | 1017.2 |
| 20260906021008 | 73 | 324 | 0.0 | 0.9 | 0.00 | 0.00 | 0.00 | 44 | 1017.1 |
| 20260906020509 | 74 | 302 | 0.0 | 0.9 | 0.00 | 0.00 | 0.00 | 42 | 1017.1 |
| 20260906020009 | 75 | 26 | 0.9 | 1.7 | 0.00 | 0.00 | 0.00 | 41 | 1017.1 |
| 20260906015508 | 76 | 335 | 0.0 | 0.9 | 0.00 | 0.00 | 0.00 | 41 | 1017.1 |
| 20260906015008 | 78 | 48 | 0.9 | 1.7 | 0.00 | 0.00 | 0.00 | 38 | 1016.9 |
| 20260906014508 | 79 | 295 | 0.0 | 0.9 | 0.00 | 0.00 | 0.00 | 39 | 1016.9 |
| 20260906014008 | 80 | 57 | 1.7 | 1.7 | 0.00 | 0.00 | 0.00 | 38 | 1016.9 |
| 20260906013509 | 82 | 64 | 1.7 | 1.7 | 0.00 | 0.00 | 0.00 | 36 | 1016.9 |
| 20260906013008 | 84 | 60 | 0.9 | 1.7 | 0.00 | 0.00 | 0.00 | 33 | 1016.9 |
| 20260906012508 | 85 | 205 | 0.0 | 0.9 | 0.00 | 0.00 | 0.00 | 34 | 1016.9 |
| 20260906012008 | 85 | 337 | 0.9 | 1.7 | 0.00 | 0.00 | 0.00 | 31 | 1016.9 |
| 20260906011509 | 86 | 332 | 0.9 | 1.7 | 0.00 | 0.00 | 0.00 | 30 | 1016.9 |
| 20260906011008 | 87 | 340 | 0.9 | 1.7 | 0.00 | 0.00 | 0.00 | 31 | 1016.9 |
| 20260906010509 | 87 | 272 | 0.9 | 1.7 | 0.00 | 0.00 | 0.00 | 30 | 1016.9 |
| 20260906010008 | 88 | 282 | 0.0 | 0.9 | 0.00 | 0.00 | 0.00 | 32 | 1016.9 |
| 20260906005508 | 89 | 251 | 1.7 | 1.7 | 0.00 | 0.00 | 0.00 | 30 | 1016.9 |
| 20260906005009 | 89 | 215 | 0.0 | 0.9 | 0.00 | 0.00 | 0.00 | 27 | 1016.8 |
| 20260906004508 | 89 | 259 | 0.0 | 0.9 | 0.00 | 0.00 | 0.00 | 27 | 1016.8 |
| 20260906004008 | 90 | 342 | 0.9 | 2.6 | 0.00 | 0.00 | 0.00 | 27 | 1016.8 |
| 20260906003508 | 90 | 349 | 0.9 | 1.7 | 0.00 | 0.00 | 0.00 | 26 | 1016.8 |
| 20260906003008 | 89 | 348 | 1.7 | 1.7 | 0.00 | 0.00 | 0.00 | 23 | 1016.8 |
| 20260906002034 | 89 | 273 | 1.7 | 3.5 | 0.00 | 0.00 | 0.00 | 26 | 1016.8 |
| 20260906001508 | 90 | 352 | 2.6 | 4.3 | 0.00 | 0.00 | 0.00 | 23 | 1016.8 |
| 20260906001009 | 90 | 351 | 0.9 | 1.7 | 0.00 | 0.00 | 0.00 | 26 | 1016.8 |
| 20260906000508 | 90 | 318 | 1.7 | 3.5 | 0.00 | 0.00 | 0.00 | 27 | 1016.8 |
| 20260906000008 | 90 | 276 | 2.6 | 3.5 | 0.00 | 0.00 | 0.00 | 25 | 1016.8 |
| 20260905235509 | 91 | 265 | 2.6 | 2.6 | 0.00 | 0.00 | 0.00 | 28 | 1016.9 |
| 20260905235008 | 92 | 214 | 0.9 | 1.7 | 0.00 | 0.00 | 0.00 | 23 | 1016.8 |
| 20260905234508 | 92 | 282 | 1.7 | 1.7 | 0.00 | 0.00 | 0.00 | 25 | 1016.9 |
| 20260905234008 | 92 | 241 | 0.9 | 1.7 | 0.00 | 0.00 | 0.00 | 26 | 1016.9 |
| 20260905233508 | 92 | 326 | 0.9 | 1.7 | 0.00 | 0.00 | 0.00 | 22 | 1016.9 |
| 20260905233008 | 91 | 277 | 1.7 | 1.7 | 0.00 | 0.00 | 0.00 | 28 | 1016.9 |